Weather History for KAPC - December, 2014

Change the Weather History Date:

Monday, December 22, 2014

  Actual Average Record
Temperature  
Mean Temperature 55 °F 45 °F  
Max Temperature 63 °F 55 °F 68 °F (1999)
Min Temperature 47 °F 36 °F 19 °F (1998)
Degree Days  
Heating Degree Days 10    
Month to date heating degree days 232  
Since 1 July heating degree days 705  
Cooling Degree Days 0    
Month to date cooling degree days 0  
Year to date cooling degree days 267  
Growing Degree Days 5 (Base 50)    
Moisture  
Dew Point 54 °F    
Average Humidity 92    
Maximum Humidity 100    
Minimum Humidity 84    
Precipitation  
Precipitation 0.00 in - 3.45 in (1955)
Month to date precipitation 10.14  
Year to date precipitation 21.04  
Since 1 July precipitation 12.77  
Sea Level Pressure  
Sea Level Pressure 30.23 in    
Wind  
Wind Speed 3 mph (NNW)    
Max Wind Speed 8 mph    
Max Gust Speed 9 mph    
Visibility 4 miles    
Events Fog    
T = Trace of Precipitation, MM = Missing Value Source: NWS Daily Summary

Daily Weather History Graph

Daily Weather History Graph

Search for Another Location

Airport or City:

Trip Planner

Search our weather history database for the weather conditions in past years. The results will help you decide how hot, cold, wet, or windy it might be!

Date:

Astronomy

Dec. 22, 2014 Rise Set
Actual Time 7:22 AM PST 4:53 PM PST
Civil Twilight 6:53 AM PST 5:22 PM PST
Nautical Twilight 6:19 AM PST 5:55 PM PST
Astronomical Twilight 5:47 AM PST 6:28 PM PST
Moon 7:41 AM PST (12/22) 6:06 PM PST (12/22)
Length of Visible Light 10h 29m
Length of Day
9h 30m
New Moon, 1% of the Moon is Illuminated
Dec 22
New Moon
Dec 28
First Quarter
Jan 4
Full
Jan 13
Last Quarter
Jan 20
New

Hourly Weather History & Observations

Time (PST) Temp. Dew Point Humidity Pressure Visibility Wind Dir Wind Speed Gust Speed Precip Events Conditions
12:54 AM 53.1 °F 53.1 °F 100% 30.25 in 0.2 mi Calm Calm - N/A Fog Fog
1:16 AM 54.0 °F 54.0 °F 100% 30.27 in 0.8 mi East 3.5 mph - N/A   Overcast
1:24 AM 54.0 °F 54.0 °F 100% 30.27 in 0.5 mi Calm Calm - N/A Fog Fog
1:35 AM 54.0 °F 54.0 °F 100% 30.27 in 0.5 mi East 3.5 mph - N/A Fog Fog
1:54 AM 54.0 °F 54.0 °F 100% 30.24 in 0.5 mi Calm Calm - N/A Fog Fog
2:13 AM 55.0 °F 55.0 °F 100% 30.27 in 1.0 mi Calm Calm - N/A   Overcast
2:22 AM 55.0 °F 55.0 °F 100% 30.27 in 2.0 mi Calm Calm - N/A   Overcast
2:36 AM 55.0 °F 55.0 °F 100% 30.27 in 5.0 mi SSE 3.5 mph - N/A   Overcast
2:54 AM 55.0 °F 55.0 °F 100% 30.25 in 6.0 mi Calm Calm - N/A   Overcast
3:45 AM 55.0 °F 55.0 °F 100% 30.26 in 7.0 mi WNW 4.6 mph - N/A   Overcast
3:54 AM 55.0 °F 55.0 °F 100% 30.24 in 6.0 mi NW 3.5 mph - N/A   Overcast
4:33 AM 55.0 °F 55.0 °F 100% 30.26 in 10.0 mi Calm Calm - N/A   Overcast
4:54 AM 55.0 °F 55.0 °F 100% 30.23 in 10.0 mi NNE 6.9 mph - N/A   Overcast
5:35 AM 54.0 °F 54.0 °F 100% 30.26 in 10.0 mi NNW 5.8 mph - N/A   Overcast
5:54 AM 54.0 °F 54.0 °F 100% 30.24 in 2.5 mi NNE 5.8 mph - N/A   Overcast
6:10 AM 54.0 °F 54.0 °F 100% 30.27 in 4.0 mi NW 5.8 mph - N/A   Overcast
6:30 AM 54.0 °F 54.0 °F 100% 30.27 in 1.8 mi North 4.6 mph - N/A   Overcast
6:54 AM 54.0 °F 54.0 °F 100% 30.25 in 1.8 mi North 4.6 mph - N/A   Overcast
7:00 AM 54.0 °F 54.0 °F 100% 30.27 in 3.0 mi Calm Calm - N/A   Overcast
7:10 AM 53.1 °F 53.1 °F 100% 30.27 in 1.8 mi North 3.5 mph - N/A   Overcast
7:33 AM 53.1 °F 53.1 °F 100% 30.27 in 2.5 mi North 4.6 mph - N/A   Overcast
7:41 AM 53.1 °F 53.1 °F 100% 30.27 in 5.0 mi North 5.8 mph - N/A   Overcast
7:54 AM 53.1 °F 53.1 °F 100% 30.25 in 2.0 mi North 4.6 mph - N/A   Overcast
8:54 AM 53.1 °F 53.1 °F 100% 30.27 in 2.0 mi ENE 4.6 mph - N/A   Overcast
8:58 AM 53.1 °F 53.1 °F 100% 30.29 in 1.0 mi NE 3.5 mph - N/A   Overcast
9:54 AM 55.0 °F 55.0 °F 100% 30.27 in 1.0 mi Calm Calm - N/A   Overcast
10:01 AM 55.0 °F 55.0 °F 100% 30.30 in 2.0 mi WSW 4.6 mph - N/A   Overcast
10:23 AM 55.0 °F 55.0 °F 100% 30.30 in 2.0 mi WSW 5.8 mph - N/A   Overcast
10:54 AM 55.0 °F 55.0 °F 100% 30.27 in 2.0 mi WSW 4.6 mph - N/A   Overcast
11:01 AM 55.0 °F 55.0 °F 100% 30.29 in 6.0 mi WSW 4.6 mph - N/A   Overcast
11:25 AM 57.0 °F 55.9 °F 96% 30.27 in 10.0 mi WSW 3.5 mph - N/A   Overcast
11:46 AM 57.9 °F 55.9 °F 93% 30.26 in 10.0 mi Calm Calm - N/A   Overcast
11:54 AM 57.9 °F 55.0 °F 90% 30.23 in 10.0 mi Calm Calm - N/A   Overcast
12:01 PM 59.0 °F 55.9 °F 90% 30.25 in 10.0 mi Calm Calm - N/A   Mostly Cloudy
12:54 PM 60.1 °F 55.0 °F 83% 30.20 in 10.0 mi West 3.5 mph - N/A   Mostly Cloudy
1:54 PM 61.0 °F 55.9 °F 83% 30.18 in 10.0 mi West 4.6 mph - N/A   Mostly Cloudy
2:00 PM 61.0 °F 55.9 °F 83% 30.20 in 10.0 mi West 3.5 mph - N/A   Clear
2:54 PM 62.1 °F 57.0 °F 84% 30.17 in 10.0 mi West 4.6 mph - N/A   Clear
3:54 PM 61.0 °F 57.0 °F 87% 30.15 in 10.0 mi South 3.5 mph - N/A   Clear
4:54 PM 55.9 °F 54.0 °F 93% 30.16 in 10.0 mi SSW 6.9 mph - N/A   Clear
5:54 PM 55.9 °F 55.0 °F 97% 30.15 in 10.0 mi East 3.5 mph - N/A   Clear
6:54 PM 52.0 °F 52.0 °F 100% 30.16 in 9.0 mi Calm Calm - N/A   Clear
7:54 PM 50.0 °F 50.0 °F 100% 30.17 in 1.8 mi Calm Calm - N/A   Clear
8:05 PM 50.0 °F 50.0 °F 100% 30.20 in 3.0 mi ENE 3.5 mph - N/A   Clear
8:37 PM 50.0 °F 50.0 °F 100% 30.19 in 1.5 mi SE 3.5 mph - N/A   Clear
8:52 PM 48.2 °F 48.2 °F 100% 30.20 in 0.8 mi Calm Calm - N/A   Mist
8:54 PM 48.9 °F 48.9 °F 100% 30.17 in 0.5 mi NW 3.5 mph - N/A Fog Fog
9:05 PM 48.9 °F 48.9 °F 100% 30.20 in 1.0 mi Variable 3.5 mph - N/A   Mist
9:13 PM 51.1 °F 51.1 °F 100% 30.20 in 0.5 mi Calm Calm - N/A Fog Fog
9:46 PM 53.1 °F 53.1 °F 100% 30.20 in 1.0 mi NE 3.5 mph - N/A   Mist
9:49 PM 53.6 °F 53.6 °F 100% 30.19 in 3.0 mi NNE 3.5 mph - N/A   Mostly Cloudy
9:54 PM 54.0 °F 54.0 °F 100% 30.17 in 9.0 mi NNE 3.5 mph - N/A   Scattered Clouds
10:12 PM 51.1 °F 51.1 °F 100% 30.20 in 1.8 mi Calm Calm - N/A   Clear
10:19 PM 50.0 °F 50.0 °F 100% 30.20 in 0.5 mi North 3.5 mph - N/A Fog Fog
10:54 PM 48.0 °F 48.0 °F 100% 30.18 in 0.2 mi ESE 4.6 mph - N/A Fog Fog
11:54 PM 48.0 °F 48.0 °F 100% 30.17 in 0.5 mi Calm Calm - N/A Fog Fog